Regional Weather Roundup
Issued by NWS

Home | Current Version | Previous Version | Graphics & Text | Print | Product List | Glossary On
Versions: 1 2 3 4 5 6 7 8 9 10 11 12 13 14 15 16 17 18 19 20 21 22 23 24 25 26 27 28 29 30 31 32 33 34 35 36 37 38 39 40 41 42 43 44 45 46 47 48 49 50
000
ASUS45 KTFX 030910
RWRMT
MONTANA REGIONAL WEATHER ROUNDUP
NATIONAL WEATHER SERVICE GREAT FALLS MT
300 AM MDT MON AUG 03 2015

NOTE: "FAIR" INDICATES FEW OR NO CLOUDS BELOW 12000 FEET WITH NO
SIGNIFICANT WEATHER AND/OR OBSTRUCTIONS TO VISIBILITY.

MTZ001>007-043-031000-
WEST OF THE DIVIDE

CITY           SKY/WX    TMP DP  RH WIND       PRES   REMARKS
KALISPELL      MOSUNNY   52  40  63 CALM      29.87F
MISSOULA       MOCLDY    60  36  40 CALM      29.91F
BUTTE          PTCLDY    55  35  47 CALM      30.07S
MULLAN PASS    PTCLDY    71  20  14 SE3       30.09F
DEER LODGE       N/A     54  39  58 CALM      30.05S
EUREKA           N/A     61  36  39 CALM      29.87S
HAMILTON         N/A     59  37  44 SE7       29.92S
LIBBY            N/A     57  30  35 CALM      29.87F
PLAINS           N/A     58  36  43 CALM      29.89S
RONAN            N/A     56  42  59 N3        29.94S
$$

MTZ008-052>055-031000-
SOUTHWEST MONTANA

CITY           SKY/WX    TMP DP  RH WIND       PRES   REMARKS
BOZEMAN        PTCLDY    58  44  60 CALM      30.00S
DILLON         MOCLDY    57  37  47 S3        30.02S
W YELLOWSTONE  PTCLDY    45  39  81 CALM      30.15S
THREE FORKS      N/A     53  53 100 CALM      29.99S
TWIN BRIDGES     N/A     59  32  36 E2        30.01R
$$

MTZ009-010-012-014-046-048-049-054-031000-
EAST SLOPES AND CENTRAL MONTANA

CITY           SKY/WX    TMP DP  RH WIND       PRES   REMARKS
CUT BANK       CLEAR     59  48  67 E6        29.97F
GREAT FALLS    CLEAR     68  44  42 S9        29.94F
MALMSTROM AFB  CLEAR     59  48  67 E6        29.94F
HELENA         PTCLDY    67  41  38 SW5       29.96F
CONRAD           N/A     49  47  93 CALM      29.99F
$$

MTZ011-013-016-021-045-047-050-051-031000-
NORTH CENTRAL MONTANA

CITY           SKY/WX    TMP DP  RH WIND       PRES   REMARKS
HAVRE          CLEAR     62  52  69 NE13      29.94F
LEWISTOWN      CLEAR     65  46  50 E13       30.02F
CHINOOK          N/A     61  54  77 E8        29.97F
FORT BENTON      N/A     72  46  40 E8        29.93S
$$

MTZ017>020-022>027-061-062-031000-
NORTHEAST MONTANA

CITY           SKY/WX    TMP DP  RH WIND       PRES   REMARKS
GLASGOW        CLEAR     58  47  66 SE6       30.02R
JORDAN           N/A     57  46  66 CALM      30.02S
SIDNEY         CLEAR     55  46  71 CALM      30.02F
WOLF POINT     CLEAR     55  47  74 E3        30.03S
MALTA            N/A     63  49  60 CALM      29.98R
PLENTYWOOD       N/A    N/A N/A N/A MISG      30.04S
POPLAR           N/A     54  48  82 N3        30.03F
SCOBEY           N/A     53  46  77 CALM      30.03F
$$

MTZ028>42-056>058-031000-
SOUTHCENTRAL AND SOUTHEAST MONTANA

CITY           SKY/WX    TMP DP  RH WIND       PRES   REMARKS
BAKER          CLEAR     56  46  69 E3        30.05F
BILLINGS       CLEAR     65  44  46 N8        30.00S
LIVINGSTON     PTCLDY    65  40  39 SE9       30.03F
MILES CITY     CLEAR     63  48  58 NE8       30.00F
EKALAKA          N/A     64  45  50 SE10      30.03F
FORSYTH          N/A     63  46  55 E6        29.99S
LAUREL           N/A     65  41  41 N1        29.98F
ROUNDUP          N/A     62  44  51 CALM      29.93F
$$

REGIONAL REPORTS...DAKOTAS

CITY           SKY/WX    TMP DP  RH WIND       PRES   REMARKS
WILLISTON      CLEAR     56  49  77 NE5       30.03S
MINOT          CLEAR     57  48  72 W8        29.99R
DICKINSON      CLEAR     50  45  83 W5        30.03R
BEACH          FAIR      50  48  93 CALM      30.05F
CROSBY         FAIR      48  48 100 SW6       30.03S
BISMARCK       CLEAR     53  50  89 CALM      30.00R
GRAND FORKS    CLEAR     49  47  93 W7        29.88S
FARGO          CLEAR     53  47  79 W5        29.90R
BUFFALO SD       N/A     58  49  72 NE8       29.98S
RAPID CITY     CLEAR     58  52  80 N3        30.03F
$$

REGIONAL REPORTS...WYOMING/IDAHO/WASHINGTON

CITY           SKY/WX    TMP DP  RH WIND       PRES   REMARKS
GILLETTE       PTCLDY    54  48  80 SW3       30.05F
SHERIDAN       PTCLDY    57  46  66 CALM      30.02F
BUFFALO WY     PTCLDY    64  43  46 CALM      30.08F
CODY           PTCLDY    66  43  42 SW7       30.07S
YELLOWSTONE LA   N/A     46  36  68 CALM      30.25F
IDAHO FALLS    MOCLDY    55  46  71 CALM      29.96F
SALMON         PTCLDY    55  43  62 CALM      29.92S
BOISE          MOCLDY    80  48  32 N3        29.84R
SPOKANE        PTCLDY    73  32  22 S5        29.80F
$$

REGIONAL REPORTS...ALBERTA

CITY           SKY/WX    TMP DP  RH WIND       PRES   REMARKS
EDMONTON       CLOUDY    63  55  77 CALM      29.92S
CALGARY        MOCLDY    64  50  59 S8        29.94F
LETHBRIDGE     CLEAR     57  48  72 CALM      29.91F
MEDICINE HAT   CLEAR     63  54  72 NE7       29.93F
WATERTON GATE    N/A     46  45  93 SW3         N/A
CARDSTON         N/A     57  46  67 S5          N/A
MILK RIVER       N/A     63  50  63 S8          N/A
ONEFOUR          N/A     61  52  72 E16         N/A
$$

REGIONAL REPORTS...SASKATCHEWAN

CITY           SKY/WX    TMP DP  RH WIND       PRES   REMARKS
SWIFT CURRENT  CLEAR     54  52  94 S9        30.02F
REGINA         CLEAR     50  48  93 CALM      30.02S
SASKATOON      CLEAR     52  50  93 W2        30.02R
CYPRESS HILLS    N/A     57  46  67 SE7         N/A
VAL MARIE        N/A     54  48  82 N2          N/A
ROCKGLEN         N/A     57  50  77 E3          N/A
$$



USA.gov is the U.S. government's official web portal to all federal, state and local government web resources and services.